Location: Lussas
(44.6119°N, 4.4726°E)
Time: 06:26:47
(UTC+00:00)

METEOR-M - Pass Details

Date: 26 November 2020
Orbit: 817 x 818 km, 98.5° (Epoch: 18 January)

Event Time Altitude Azimuth Distance (km) Brightness Sun altitude
Rises 04:56:36 0° 9° (N) 3,356 7.3 -20.3°
Reaches altitude 10° 04:59:00 10° 6° (N) 2,420 6.5 -19.9°
Maximum altitude 05:04:13 56° 289° (WNW) 969 4.1 -19.0°
Drops below altitude 10° 05:09:24 10° 212° (SSW) 2,404 6.4 -18.1°
Sets 05:11:46 0° 209° (SSW) 3,332 7.1 -17.7°
